Date String (YYYY-MM-DD hh:mm:ss) UTC,Instrument flags,Ambient pressure (hPa),Sample flow (lpm),Bypass flow (lpm),Sample temperature (°C),Ambient temperature (°C),ASC tube jacket temperature (°C),LED temperature (°C),Box temperature (°C),Sample RH (%),Span deviation,Mass concentration (μg/m³),Mass concentration (μg/m³),Mass concentration (μg/m³)
DateTimeUTC,F1_M11,P_M11,Q1_M11,Q2_M11,T1_M11,T2_M11,T3_M11,T4_M11,T5_M11,U1_M11,ZSPAN_M11,X2_M11,X0_M11,X1_M11
2023-03-06 19:00:00,,0823.7,5.01,0.00,21.6,21.7,00.0,30.3,23.5,08.5,0000.0,0002.85,0007.34,0001.98
2023-03-06 19:01:00,,0823.7,5.01,0.00,21.7,21.3,00.0,30.3,23.4,08.5,0000.0,0002.84,0006.61,0002.00
2023-03-06 19:02:00,,0823.7,5.00,0.00,21.7,21.0,00.0,30.3,23.4,08.5,0000.0,0002.86,0006.52,0002.01
2023-03-06 19:03:00,,0823.7,5.00,0.00,21.7,20.7,00.0,30.3,23.4,08.5,0000.0,0002.88,0006.72,0002.04
2023-03-06 19:04:00,,0823.7,5.00,0.00,21.7,20.5,00.0,30.3,23.3,08.6,0000.0,0002.92,0008.01,0002.07
2023-03-06 19:05:00,,0823.7,5.00,0.00,21.7,20.4,00.0,30.4,23.3,08.7,0000.0,0002.91,0009.50,0002.10
2023-03-06 19:06:00,,0823.7,5.01,0.00,21.7,20.3,00.0,30.4,23.3,08.8,0000.0,0002.97,0009.73,0002.13
2023-03-06 19:07:00,,0823.6,5.00,0.00,21.6,20.3,00.0,30.4,23.3,08.6,0000.0,0003.02,0009.68,0002.13
2023-03-06 19:08:00,,0823.6,5.00,0.00,21.6,20.2,00.0,30.4,23.3,08.3,0000.0,0003.10,0010.33,0002.17
2023-03-06 19:09:00,,0823.6,5.00,0.00,21.6,20.1,00.0,30.4,23.2,08.5,0000.0,0003.13,0010.89,0002.18
2023-03-06 19:10:00,,0823.6,5.01,0.00,21.6,20.1,00.0,30.4,23.2,08.5,0000.0,0003.14,0011.04,0002.20
2023-03-06 19:11:00,,0823.6,5.00,0.00,21.6,20.0,00.0,30.4,23.2,08.6,0000.0,0003.15,0011.32,0002.23
2023-03-06 19:12:00,,0823.7,5.01,0.00,21.5,20.0,00.0,30.4,23.1,08.4,0000.0,0003.18,0011.54,0002.24
2023-03-06 19:13:00,,0823.7,5.01,0.00,21.5,19.8,00.0,30.3,23.1,08.3,0000.0,0003.20,0011.29,0002.26
2023-03-06 19:14:00,,0823.4,5.01,0.00,21.5,19.8,00.0,30.3,23.1,08.4,0000.0,0003.22,0011.26,0002.27
2023-03-06 19:15:00,,0823.4,4.99,0.00,21.5,19.7,00.0,30.3,23.1,08.7,0000.0,0003.23,0010.27,0002.27
2023-03-06 19:16:00,,0823.5,5.00,0.00,21.4,19.7,00.0,30.3,23.1,08.8,0000.0,0003.23,0009.30,0002.27
2023-03-06 19:17:00,,0823.6,5.00,0.00,21.4,19.6,00.0,30.3,23.0,08.7,0000.0,0003.22,0008.82,0002.27
2023-03-06 19:18:00,,0823.6,5.02,0.00,21.4,19.6,00.0,30.3,23.0,08.8,0000.0,0003.20,0008.81,0002.29
2023-03-06 19:19:00,,0823.6,5.01,0.00,21.4,19.6,00.0,30.3,23.0,08.8,0000.0,0003.16,0008.20,0002.29
2023-03-06 19:20:00,,0823.5,5.00,0.00,21.4,20.1,00.0,30.2,23.1,08.9,0000.0,0003.16,0008.10,0002.30
2023-03-06 19:21:00,,0823.4,4.99,0.00,21.5,21.5,00.0,30.2,23.4,09.1,0000.0,0003.16,0008.14,0002.32
2023-03-06 19:22:00,,0823.4,5.02,0.00,21.6,22.3,00.0,30.3,23.6,09.1,0000.0,0003.14,0008.01,0002.34
2023-03-06 19:23:00,,0823.4,4.99,0.00,21.7,21.8,00.0,30.3,23.6,09.0,0000.0,0003.16,0008.03,0002.33
2023-03-06 19:24:00,,0823.4,4.99,0.00,21.7,21.3,00.0,30.3,23.5,08.9,0000.0,0003.18,0008.28,0002.33
2023-03-06 19:25:00,,0823.4,5.01,0.00,21.7,21.0,00.0,30.4,23.4,08.9,0000.0,0003.19,0008.55,0002.36
2023-03-06 19:26:00,,0823.3,5.00,0.00,21.7,20.7,00.0,30.4,23.3,08.8,0000.0,0003.21,0008.71,0002.38
2023-03-06 19:27:00,,0823.4,5.01,0.00,21.6,20.5,00.0,30.4,23.3,08.9,0000.0,0003.26,0008.30,0002.42
2023-03-06 19:28:00,,0823.3,5.00,0.00,21.6,20.3,00.0,30.4,23.3,09.1,0000.0,0003.30,0008.31,0002.44
2023-03-06 19:29:00,,0823.3,5.00,0.00,21.6,20.2,00.0,30.4,23.3,09.3,0000.0,0003.33,0008.29,0002.46
2023-03-06 19:30:00,,0823.3,4.99,0.00,21.6,20.1,00.0,30.4,23.2,09.2,0000.0,0003.36,0008.51,0002.50
2023-03-06 19:31:00,,0823.3,5.00,0.00,21.6,20.0,00.0,30.4,23.2,09.2,0000.0,0003.37,0008.20,0002.55
2023-03-06 19:32:00,,0823.4,4.99,0.00,21.5,19.9,00.0,30.4,23.2,09.3,0000.0,0003.39,0008.60,0002.57
2023-03-06 19:33:00,,0823.3,5.00,0.00,21.5,19.8,00.0,30.3,23.1,09.0,0000.0,0003.43,0008.55,0002.58
2023-03-06 19:34:00,,0823.3,5.00,0.00,21.5,19.7,00.0,30.3,23.1,09.0,0000.0,0003.42,0008.49,0002.59
2023-03-06 19:35:00,,0823.2,5.01,0.00,21.4,19.6,00.0,30.3,23.0,09.0,0000.0,0003.44,0008.72,0002.62
2023-03-06 19:36:00,,0823.2,5.01,0.00,21.4,19.6,00.0,30.3,23.0,09.2,0000.0,0003.44,0009.05,0002.61
2023-03-06 19:37:00,,0823.3,5.00,0.00,21.4,19.5,00.0,30.3,23.0,09.1,0000.0,0003.43,0010.13,0002.63
2023-03-06 19:38:00,,0823.3,4.99,0.00,21.4,19.5,00.0,30.3,22.9,09.2,0000.0,0003.41,0010.55,0002.63
2023-03-06 19:39:00,,0823.3,5.01,0.00,21.3,19.5,00.0,30.2,22.9,09.4,0000.0,0003.39,0011.01,0002.65
2023-03-06 19:40:00,,0823.2,4.99,0.00,21.3,19.4,00.0,30.2,22.9,09.6,0000.0,0003.41,0011.17,0002.67
2023-03-06 19:41:00,,0823.3,5.02,0.00,21.3,19.6,00.0,30.2,22.9,09.5,0000.0,0003.45,0011.67,0002.69
2023-03-06 19:42:00,,0823.2,5.00,0.00,21.4,20.8,00.0,30.2,23.2,09.3,0000.0,0003.46,0012.35,0002.70
2023-03-06 19:43:00,,0823.1,5.01,0.00,21.5,22.1,00.0,30.2,23.5,09.2,0000.0,0003.49,0012.17,0002.71
2023-03-06 19:44:00,,0823.0,5.02,0.00,21.6,22.5,00.0,30.2,23.7,09.1,0000.0,0003.48,0013.29,0002.72
2023-03-06 19:45:00,,0823.1,5.02,0.00,21.7,22.0,00.0,30.3,23.6,09.1,0000.0,0003.52,0013.68,0002.75
2023-03-06 19:46:00,,0823.1,5.01,0.00,21.7,21.5,00.0,30.3,23.5,09.3,0000.0,0003.52,0013.30,0002.77
2023-03-06 19:47:00,,0823.0,5.00,0.00,21.7,21.1,00.0,30.3,23.4,09.3,0000.0,0003.57,0013.02,0002.81
2023-03-06 19:48:00,,0823.1,4.99,0.00,21.7,20.8,00.0,30.4,23.4,09.2,0000.0,0003.64,0012.69,0002.83
2023-03-06 19:49:00,,0823.1,4.98,0.00,21.7,20.6,00.0,30.4,23.4,09.3,0000.0,0003.65,0012.20,0002.85
2023-03-06 19:50:00,,0823.1,5.01,0.00,21.7,20.5,00.0,30.4,23.4,09.4,0000.0,0003.69,0011.92,0002.87
2023-03-06 19:51:00,,0823.0,5.00,0.00,21.7,20.3,00.0,30.4,23.3,09.6,0000.0,0003.73,0012.80,0002.89
2023-03-06 19:52:00,,0822.9,5.00,0.00,21.6,20.1,00.0,30.4,23.3,09.4,0000.0,0003.71,0013.25,0002.89
2023-03-06 19:53:00,,0823.0,5.01,0.00,21.6,20.0,00.0,30.4,23.2,09.2,0000.0,0003.72,0012.60,0002.90
2023-03-06 19:54:00,,0823.0,5.01,0.00,21.6,19.8,00.0,30.4,23.1,09.2,0000.0,0003.71,0012.36,0002.91
2023-03-06 19:55:00,,0823.1,5.00,0.00,21.5,19.7,00.0,30.4,23.1,09.2,0000.0,0003.70,0011.18,0002.93
2023-03-06 19:56:00,,0823.1,5.00,0.00,21.5,19.7,00.0,30.3,23.0,09.0,0000.0,0003.70,0010.93,0002.95
2023-03-06 19:57:00,,0823.1,5.00,0.00,21.5,19.7,00.0,30.3,23.1,09.2,0000.0,0003.71,0011.53,0002.96
2023-03-06 19:58:00,,0823.1,4.98,0.00,21.4,19.6,00.0,30.3,23.0,09.3,0000.0,0003.69,0011.61,0002.97
2023-03-06 19:59:00,,0823.0,4.96,0.00,21.4,19.6,00.0,30.3,23.0,09.5,0000.0,0003.69,0010.90,0002.97
